Time,TemperatureF,DewpointF,PressureIn,WindDirection,WindDirectionDegrees,WindSpeedMPH,WindSpeedGustMPH,Humidity,HourlyPrecipIn,Conditions,Clouds,dailyrainin,SoftwareType,DateUTC
2013-01-16 00:03:00,31.5,28.9,29.94,East,93,0.0,0.0,90,0.00,,---,0.00,VWS V13.00,2013-01-16 09:03:00,
2013-01-16 00:08:00,31.5,29.1,29.94,East,93,0.0,0.0,91,0.00,,---,0.00,VWS V13.00,2013-01-16 09:08:00,
2013-01-16 00:13:00,31.5,29.1,29.94,East,93,0.0,0.0,91,0.00,,---,0.00,VWS V13.00,2013-01-16 09:13:00,
2013-01-16 00:18:00,31.5,29.1,29.94,East,93,0.0,0.0,91,0.00,,---,0.00,VWS V13.00,2013-01-16 09:18:00,
2013-01-16 00:23:00,31.5,29.1,29.94,East,93,0.0,0.0,91,0.00,,---,0.00,VWS V13.00,2013-01-16 09:23:00,
2013-01-16 00:28:00,31.5,29.1,29.94,East,93,0.0,0.0,91,0.00,,---,0.00,VWS V13.00,2013-01-16 09:28:00,
2013-01-16 00:33:00,31.8,29.5,29.94,East,93,0.0,0.0,91,0.00,,---,0.00,VWS V13.00,2013-01-16 09:33:00,
2013-01-16 00:38:00,31.8,29.5,29.94,East,93,0.0,0.0,91,0.00,,---,0.00,VWS V13.00,2013-01-16 09:38:00,
2013-01-16 00:43:00,31.8,29.5,29.94,East,93,0.0,0.0,91,0.00,,---,0.00,VWS V13.00,2013-01-16 09:43:00,
2013-01-16 00:48:00,31.8,29.5,29.94,East,93,0.0,0.0,91,0.00,,---,0.00,VWS V13.00,2013-01-16 09:48:00,
2013-01-16 00:53:00,31.8,29.5,29.94,East,93,0.0,0.0,91,0.00,,---,0.00,VWS V13.00,2013-01-16 09:53:00,
2013-01-16 00:58:00,32.0,29.7,29.91,East,93,0.0,0.0,91,0.00,,---,0.00,VWS V13.00,2013-01-16 09:58:00,
2013-01-16 01:03:00,31.8,29.5,29.91,East,93,0.0,0.0,91,0.00,,---,0.00,VWS V13.00,2013-01-16 10:03:00,
2013-01-16 01:08:00,31.8,29.5,29.91,East,93,0.0,0.0,91,0.00,,---,0.00,VWS V13.00,2013-01-16 10:08:00,
2013-01-16 01:13:00,31.8,29.5,29.91,East,93,0.0,0.0,91,0.00,,---,0.00,VWS V13.00,2013-01-16 10:13:00,
2013-01-16 01:18:00,31.6,29.3,29.91,East,93,0.0,0.0,91,0.00,,---,0.00,VWS V13.00,2013-01-16 10:18:00,
2013-01-16 01:23:00,32.0,29.7,29.91,East,93,0.0,0.0,91,0.00,,---,0.00,VWS V13.00,2013-01-16 10:23:00,
2013-01-16 01:28:00,32.0,29.7,29.91,East,93,0.0,0.0,91,0.00,,---,0.00,VWS V13.00,2013-01-16 10:28:00,
2013-01-16 01:33:00,32.0,29.7,29.91,East,93,0.0,0.0,91,0.00,,---,0.00,VWS V13.00,2013-01-16 10:33:00,
2013-01-16 01:38:00,32.0,29.7,29.91,East,93,0.0,0.0,91,0.00,,---,0.00,VWS V13.00,2013-01-16 10:38:00,
2013-01-16 01:43:00,32.0,29.7,29.91,East,93,0.0,0.0,91,0.00,,---,0.00,VWS V13.00,2013-01-16 10:43:00,
2013-01-16 01:48:00,32.0,29.7,29.91,East,93,0.0,0.0,91,0.00,,---,0.00,VWS V13.00,2013-01-16 10:48:00,
2013-01-16 01:53:00,32.0,29.7,29.91,East,93,0.0,0.0,91,0.00,,---,0.00,VWS V13.00,2013-01-16 10:53:00,
2013-01-16 01:58:00,32.0,29.7,29.91,East,93,0.0,0.0,91,0.00,,---,0.00,VWS V13.00,2013-01-16 10:58:00,
2013-01-16 02:03:00,32.0,29.7,29.91,East,93,0.0,0.0,91,0.00,,---,0.00,VWS V13.00,2013-01-16 11:03:00,
2013-01-16 02:08:00,32.4,30.3,29.91,East,93,0.0,0.0,92,0.00,,---,0.00,VWS V13.00,2013-01-16 11:08:00,
2013-01-16 02:13:00,32.4,30.6,29.91,East,93,0.0,0.0,93,0.00,,---,0.00,VWS V13.00,2013-01-16 11:13:00,
2013-01-16 02:18:00,32.4,30.6,29.91,East,93,0.0,0.0,93,0.00,,---,0.00,VWS V13.00,2013-01-16 11:18:00,
2013-01-16 02:23:00,32.4,30.6,29.91,East,93,0.0,0.0,93,0.00,,---,0.00,VWS V13.00,2013-01-16 11:23:00,
2013-01-16 02:28:00,32.4,30.6,29.91,East,93,0.0,0.0,93,0.00,,---,0.00,VWS V13.00,2013-01-16 11:28:00,
2013-01-16 02:33:00,32.0,29.9,29.91,East,93,0.0,0.0,92,0.00,,---,0.00,VWS V13.00,2013-01-16 11:33:00,
2013-01-16 02:38:00,32.0,29.9,29.91,East,93,0.0,0.0,92,0.00,,---,0.00,VWS V13.00,2013-01-16 11:38:00,
2013-01-16 02:43:00,32.0,29.9,29.91,East,93,0.0,0.0,92,0.00,,---,0.00,VWS V13.00,2013-01-16 11:43:00,
2013-01-16 02:48:00,32.0,29.9,29.91,East,93,0.0,0.0,92,0.00,,---,0.00,VWS V13.00,2013-01-16 11:48:00,
2013-01-16 02:53:00,32.2,30.1,29.91,East,93,0.0,0.0,92,0.00,,---,0.00,VWS V13.00,2013-01-16 11:53:00,
2013-01-16 02:58:00,32.2,30.4,29.91,East,93,0.0,0.0,93,0.00,,---,0.00,VWS V13.00,2013-01-16 11:58:00,
2013-01-16 03:03:00,32.2,30.4,29.91,East,93,0.0,0.0,93,0.00,,---,0.00,VWS V13.00,2013-01-16 12:03:00,
2013-01-16 03:08:00,32.2,30.1,29.91,East,93,0.0,0.0,92,0.00,,---,0.00,VWS V13.00,2013-01-16 12:08:00,
2013-01-16 03:13:00,32.2,30.1,29.91,East,93,0.0,0.0,92,0.00,,---,0.00,VWS V13.00,2013-01-16 12:13:00,
2013-01-16 03:18:00,32.4,30.6,29.88,East,93,0.0,0.0,93,0.00,,---,0.00,VWS V13.00,2013-01-16 12:18:00,
2013-01-16 03:23:00,32.4,30.6,29.88,East,93,0.0,0.0,93,0.00,,---,0.00,VWS V13.00,2013-01-16 12:23:00,
2013-01-16 03:28:00,32.2,30.4,29.88,East,93,0.0,0.0,93,0.00,,---,0.00,VWS V13.00,2013-01-16 12:28:00,
2013-01-16 03:33:00,32.2,30.4,29.88,East,93,0.0,0.0,93,0.00,,---,0.00,VWS V13.00,2013-01-16 12:33:00,
2013-01-16 03:38:00,32.2,30.4,29.88,East,93,0.0,0.0,93,0.00,,---,0.00,VWS V13.00,2013-01-16 12:38:00,
2013-01-16 03:43:00,32.2,30.4,29.88,East,93,0.0,0.0,93,0.00,,---,0.00,VWS V13.00,2013-01-16 12:43:00,
2013-01-16 03:48:00,32.2,30.4,29.88,East,93,0.0,0.0,93,0.00,,---,0.00,VWS V13.00,2013-01-16 12:48:00,
2013-01-16 03:53:00,32.2,30.4,29.88,East,93,0.0,0.0,93,0.00,,---,0.00,VWS V13.00,2013-01-16 12:53:00,
2013-01-16 03:58:00,32.2,30.4,29.88,East,93,0.0,0.0,93,0.00,,---,0.00,VWS V13.00,2013-01-16 12:58:00,
2013-01-16 04:03:00,32.2,30.4,29.88,East,93,0.0,0.0,93,0.00,,---,0.00,VWS V13.00,2013-01-16 13:03:00,
2013-01-16 04:08:00,32.2,30.4,29.88,East,93,0.0,0.0,93,0.00,,---,0.00,VWS V13.00,2013-01-16 13:08:00,
2013-01-16 04:13:00,32.4,30.6,29.88,East,93,0.0,0.0,93,0.00,,---,0.00,VWS V13.00,2013-01-16 13:13:00,
2013-01-16 04:17:00,32.4,30.6,29.88,East,93,0.0,0.0,93,0.00,,---,0.00,VWS V13.00,2013-01-16 13:17:00,
2013-01-16 04:22:00,32.4,30.6,29.88,East,93,0.0,0.0,93,0.00,,---,0.00,VWS V13.00,2013-01-16 13:22:00,
2013-01-16 04:27:00,32.4,30.6,29.88,East,93,0.0,0.0,93,0.00,,---,0.00,VWS V13.00,2013-01-16 13:27:00,
2013-01-16 04:32:00,32.4,30.6,29.88,East,93,0.0,0.0,93,0.00,,---,0.00,VWS V13.00,2013-01-16 13:32:00,
2013-01-16 04:37:00,32.4,30.6,29.88,East,93,0.0,0.0,93,0.00,,---,0.00,VWS V13.00,2013-01-16 13:37:00,
2013-01-16 04:42:00,32.4,30.6,29.88,East,93,0.0,0.0,93,0.00,,---,0.00,VWS V13.00,2013-01-16 13:42:00,
2013-01-16 04:47:00,32.4,30.6,29.88,East,93,0.0,0.0,93,0.00,,---,0.00,VWS V13.00,2013-01-16 13:47:00,
2013-01-16 04:52:00,32.2,30.4,29.88,East,93,0.0,0.0,93,0.00,,---,0.00,VWS V13.00,2013-01-16 13:52:00,
2013-01-16 04:57:00,32.2,30.4,29.88,East,93,0.0,0.0,93,0.00,,---,0.00,VWS V13.00,2013-01-16 13:57:00,
2013-01-16 05:02:00,32.2,30.4,29.88,East,93,0.0,0.0,93,0.00,,---,0.00,VWS V13.00,2013-01-16 14:02:00,
2013-01-16 05:07:00,32.2,30.4,29.88,East,93,0.0,0.0,93,0.00,,---,0.00,VWS V13.00,2013-01-16 14:07:00,
2013-01-16 05:12:00,32.2,30.4,29.88,East,93,0.0,0.0,93,0.00,,---,0.00,VWS V13.00,2013-01-16 14:12:00,
2013-01-16 05:17:00,32.2,30.4,29.88,East,93,0.0,0.0,93,0.00,,---,0.00,VWS V13.00,2013-01-16 14:17:00,
2013-01-16 05:22:00,32.2,30.4,29.88,East,93,0.0,0.0,93,0.00,,---,0.00,VWS V13.00,2013-01-16 14:22:00,
2013-01-16 05:27:00,32.0,30.2,29.88,East,93,0.0,0.0,93,0.00,,---,0.00,VWS V13.00,2013-01-16 14:27:00,
2013-01-16 05:32:00,32.0,30.2,29.88,East,93,0.0,0.0,93,0.00,,---,0.00,VWS V13.00,2013-01-16 14:32:00,
2013-01-16 05:37:00,32.2,30.4,29.88,East,93,0.0,0.0,93,0.00,,---,0.00,VWS V13.00,2013-01-16 14:37:00,
2013-01-16 05:42:00,32.2,30.4,29.88,East,93,0.0,0.0,93,0.00,,---,0.00,VWS V13.00,2013-01-16 14:42:00,
2013-01-16 05:47:00,32.2,30.4,29.88,East,93,0.0,0.0,93,0.00,,---,0.00,VWS V13.00,2013-01-16 14:47:00,
2013-01-16 05:52:00,32.2,30.4,29.88,East,93,0.0,0.0,93,0.00,,---,0.00,VWS V13.00,2013-01-16 14:52:00,
2013-01-16 05:57:00,32.2,30.4,29.88,East,93,0.0,0.0,93,0.00,,---,0.00,VWS V13.00,2013-01-16 14:57:00,
2013-01-16 06:02:00,32.2,30.4,29.88,East,93,0.0,0.0,93,0.00,,---,0.00,VWS V13.00,2013-01-16 15:02:00,
2013-01-16 06:07:00,32.2,30.4,29.88,WSW,253,0.0,0.0,93,0.00,,---,0.00,VWS V13.00,2013-01-16 15:07:00,
2013-01-16 06:12:00,32.2,30.4,29.88,WSW,253,0.0,0.0,93,0.00,,---,0.00,VWS V13.00,2013-01-16 15:12:00,
2013-01-16 06:17:00,32.2,30.4,29.88,WSW,253,0.0,0.0,93,0.00,,---,0.00,VWS V13.00,2013-01-16 15:17:00,
2013-01-16 06:22:00,32.2,30.4,29.88,West,259,0.0,0.0,93,0.00,,---,0.00,VWS V13.00,2013-01-16 15:22:00,
2013-01-16 06:27:00,32.5,31.0,29.88,West,259,0.0,0.0,94,0.00,,---,0.00,VWS V13.00,2013-01-16 15:27:00,
2013-01-16 06:32:00,32.5,30.7,29.88,West,259,0.0,0.0,93,0.00,,---,0.00,VWS V13.00,2013-01-16 15:32:00,
2013-01-16 06:37:00,32.5,30.7,29.88,West,259,0.0,0.0,93,0.00,,---,0.00,VWS V13.00,2013-01-16 15:37:00,
2013-01-16 06:42:00,32.5,30.7,29.88,West,259,0.0,0.0,93,0.00,,---,0.00,VWS V13.00,2013-01-16 15:42:00,
2013-01-16 06:47:00,32.5,30.7,29.88,West,259,0.0,0.0,93,0.00,,---,0.00,VWS V13.00,2013-01-16 15:47:00,
2013-01-16 06:52:00,32.4,30.8,29.88,West,259,0.0,0.0,94,0.00,,---,0.00,VWS V13.00,2013-01-16 15:52:00,
2013-01-16 06:57:00,32.4,30.8,29.88,West,259,0.0,0.0,94,0.00,,---,0.00,VWS V13.00,2013-01-16 15:57:00,
2013-01-16 07:02:00,32.4,30.8,29.88,West,259,0.0,0.0,94,0.00,,---,0.00,VWS V13.00,2013-01-16 16:02:00,
2013-01-16 07:07:00,32.4,30.8,29.88,West,259,0.0,0.0,94,0.00,,---,0.00,VWS V13.00,2013-01-16 16:07:00,
2013-01-16 07:12:00,32.2,30.4,29.88,West,259,0.0,0.0,93,0.00,,---,0.00,VWS V13.00,2013-01-16 16:12:00,
2013-01-16 07:17:00,32.0,30.2,29.88,West,259,0.0,0.0,93,0.00,,---,0.00,VWS V13.00,2013-01-16 16:17:00,
2013-01-16 07:22:00,32.0,30.2,29.88,West,259,0.0,0.0,93,0.00,,---,0.00,VWS V13.00,2013-01-16 16:22:00,
2013-01-16 07:27:00,32.0,30.2,29.88,West,259,0.0,0.0,93,0.00,,---,0.00,VWS V13.00,2013-01-16 16:27:00,
2013-01-16 07:32:00,31.6,29.9,29.88,West,259,0.0,0.0,93,0.00,,---,0.00,VWS V13.00,2013-01-16 16:32:00,
2013-01-16 07:37:00,31.3,29.5,29.88,West,259,0.0,0.0,93,0.00,,---,0.00,VWS V13.00,2013-01-16 16:37:00,
2013-01-16 07:42:00,31.1,29.3,29.88,West,259,0.0,0.0,93,0.00,,---,0.00,VWS V13.00,2013-01-16 16:42:00,
2013-01-16 07:47:00,31.1,29.3,29.88,West,259,0.0,0.0,93,0.00,,---,0.00,VWS V13.00,2013-01-16 16:47:00,
2013-01-16 07:52:00,31.1,29.3,29.88,West,259,0.0,0.0,93,0.00,,---,0.00,VWS V13.00,2013-01-16 16:52:00,
2013-01-16 07:57:00,31.1,29.3,29.88,West,259,0.0,0.0,93,0.00,,---,0.00,VWS V13.00,2013-01-16 16:57:00,
2013-01-16 08:02:00,31.5,29.9,29.88,West,259,0.0,0.0,94,0.00,,---,0.00,VWS V13.00,2013-01-16 17:02:00,
2013-01-16 08:07:00,31.3,29.5,29.88,West,259,0.0,0.0,93,0.00,,---,0.00,VWS V13.00,2013-01-16 17:07:00,
2013-01-16 08:12:00,31.3,29.5,29.88,West,259,0.0,0.0,93,0.00,,---,0.00,VWS V13.00,2013-01-16 17:12:00,
2013-01-16 08:17:00,31.1,29.6,29.88,West,259,0.0,0.0,94,0.00,,---,0.00,VWS V13.00,2013-01-16 17:17:00,
2013-01-16 08:22:00,31.3,29.8,29.74,West,259,0.0,0.0,94,0.00,,---,0.00,VWS V13.00,2013-01-16 17:22:00,
2013-01-16 08:27:00,31.3,29.8,29.74,West,259,0.0,0.0,94,0.00,,---,0.00,VWS V13.00,2013-01-16 17:27:00,
2013-01-16 08:32:00,31.5,29.9,29.74,West,259,0.0,0.0,94,0.00,,---,0.00,VWS V13.00,2013-01-16 17:32:00,
2013-01-16 08:37:00,31.5,29.9,29.74,West,259,0.0,0.0,94,0.00,,---,0.00,VWS V13.00,2013-01-16 17:37:00,
2013-01-16 08:42:00,31.5,29.9,29.74,West,271,0.0,0.0,94,0.00,,---,0.00,VWS V13.00,2013-01-16 17:42:00,
2013-01-16 08:47:00,31.5,29.9,29.74,North,353,0.0,0.0,94,0.00,,---,0.00,VWS V13.00,2013-01-16 17:47:00,
2013-01-16 08:52:00,31.5,29.9,29.74,NNE,23,0.0,0.0,94,0.00,,---,0.00,VWS V13.00,2013-01-16 17:52:00,
2013-01-16 08:57:00,31.5,29.9,29.74,NE,36,0.0,0.0,94,0.00,,---,0.00,VWS V13.00,2013-01-16 17:57:00,
2013-01-16 09:02:00,31.5,29.9,29.74,NE,36,0.0,0.0,94,0.00,,---,0.00,VWS V13.00,2013-01-16 18:02:00,
2013-01-16 09:07:00,31.5,29.9,29.74,NE,36,0.0,0.0,94,0.00,,---,0.00,VWS V13.00,2013-01-16 18:07:00,
2013-01-16 09:12:00,31.5,29.9,29.74,NE,36,0.0,0.0,94,0.00,,---,0.00,VWS V13.00,2013-01-16 18:12:00,
2013-01-16 09:17:00,31.5,29.9,29.74,ESE,108,0.0,0.0,94,0.00,,---,0.00,VWS V13.00,2013-01-16 18:17:00,
2013-01-16 09:22:00,31.5,29.9,29.74,ESE,108,0.0,0.0,94,0.00,,---,0.00,VWS V13.00,2013-01-16 18:22:00,
2013-01-16 09:27:00,31.5,29.9,29.74,ESE,108,0.0,0.0,94,0.00,,---,0.00,VWS V13.00,2013-01-16 18:27:00,
2013-01-16 09:32:00,31.8,30.3,29.74,ESE,108,0.0,0.0,94,0.00,,---,0.00,VWS V13.00,2013-01-16 18:32:00,
2013-01-16 09:37:00,31.8,30.3,29.74,ESE,108,0.0,0.0,94,0.00,,---,0.00,VWS V13.00,2013-01-16 18:37:00,
2013-01-16 09:42:00,31.6,30.1,29.74,ESE,108,0.0,0.0,94,0.00,,---,0.00,VWS V13.00,2013-01-16 18:42:00,
2013-01-16 09:47:00,31.6,30.1,29.74,ESE,108,0.0,0.0,94,0.00,,---,0.00,VWS V13.00,2013-01-16 18:47:00,
2013-01-16 09:52:00,31.1,29.3,29.74,SSE,153,0.0,0.0,93,0.00,,---,0.00,VWS V13.00,2013-01-16 18:52:00,
2013-01-16 09:57:00,31.1,29.6,29.74,SSE,153,0.0,0.0,94,0.00,,---,0.00,VWS V13.00,2013-01-16 18:57:00,
2013-01-16 10:02:00,31.1,29.6,29.74,SSE,153,0.0,0.0,94,0.00,,---,0.00,VWS V13.00,2013-01-16 19:02:00,
2013-01-16 10:07:00,31.3,29.8,29.74,SSE,153,0.0,0.0,94,0.00,,---,0.00,VWS V13.00,2013-01-16 19:07:00,
2013-01-16 10:12:00,31.3,29.8,29.74,SSE,153,0.0,0.0,94,0.00,,---,0.00,VWS V13.00,2013-01-16 19:12:00,
2013-01-16 10:17:00,31.6,30.1,29.74,East,89,0.0,0.0,94,0.00,,---,0.00,VWS V13.00,2013-01-16 19:17:00,
2013-01-16 10:22:00,31.6,30.1,29.74,East,89,0.0,0.0,94,0.00,,---,0.00,VWS V13.00,2013-01-16 19:22:00,
2013-01-16 10:27:00,31.6,30.1,29.74,East,89,0.0,0.0,94,0.00,,---,0.00,VWS V13.00,2013-01-16 19:27:00,
2013-01-16 10:32:00,31.6,30.1,29.74,East,89,0.0,0.0,94,0.00,,---,0.00,VWS V13.00,2013-01-16 19:32:00,
2013-01-16 10:37:00,31.6,30.1,29.74,East,89,0.0,0.0,94,0.00,,---,0.00,VWS V13.00,2013-01-16 19:37:00,
2013-01-16 10:42:00,31.5,29.9,29.74,East,89,0.0,0.0,94,0.00,,---,0.00,VWS V13.00,2013-01-16 19:42:00,
2013-01-16 10:47:00,31.8,30.3,29.74,East,89,0.0,0.0,94,0.00,,---,0.00,VWS V13.00,2013-01-16 19:47:00,
2013-01-16 10:52:00,31.8,30.3,29.74,East,89,0.0,0.0,94,0.00,,---,0.00,VWS V13.00,2013-01-16 19:52:00,
2013-01-16 10:57:00,31.8,30.3,29.74,East,89,0.0,0.0,94,0.00,,---,0.00,VWS V13.00,2013-01-16 19:57:00,
2013-01-16 11:02:00,31.8,30.3,29.74,East,89,0.0,0.0,94,0.00,,---,0.00,VWS V13.00,2013-01-16 20:02:00,
2013-01-16 11:07:00,32.0,30.5,29.74,East,89,0.0,0.0,94,0.00,,---,0.00,VWS V13.00,2013-01-16 20:07:00,
2013-01-16 11:12:00,32.0,30.5,29.74,East,89,0.0,0.0,94,0.00,,---,0.00,VWS V13.00,2013-01-16 20:12:00,
2013-01-16 11:17:00,32.0,30.5,29.74,North,353,0.0,0.0,94,0.00,,---,0.00,VWS V13.00,2013-01-16 20:17:00,
2013-01-16 11:22:00,32.0,30.5,29.74,North,353,0.0,0.0,94,0.00,,---,0.00,VWS V13.00,2013-01-16 20:22:00,
2013-01-16 11:27:00,32.0,30.5,29.74,North,0,0.0,0.0,94,0.00,,---,0.00,VWS V13.00,2013-01-16 20:27:00,
2013-01-16 11:32:00,32.2,30.9,29.74,North,0,0.0,0.0,95,0.00,,---,0.00,VWS V13.00,2013-01-16 20:32:00,
2013-01-16 11:37:00,32.4,31.1,29.74,North,0,0.0,0.0,95,0.00,,---,0.00,VWS V13.00,2013-01-16 20:37:00,
2013-01-16 11:42:00,32.5,31.3,29.74,North,0,0.0,0.0,95,0.00,,---,0.00,VWS V13.00,2013-01-16 20:42:00,
2013-01-16 11:47:00,32.5,31.3,29.74,North,0,0.0,0.0,95,0.00,,---,0.00,VWS V13.00,2013-01-16 20:47:00,
2013-01-16 11:52:00,32.9,31.6,29.74,North,0,0.0,0.0,95,0.00,,---,0.00,VWS V13.00,2013-01-16 20:52:00,
2013-01-16 11:57:00,32.9,31.6,29.74,North,0,0.0,0.0,95,0.00,,---,0.00,VWS V13.00,2013-01-16 20:57:00,
2013-01-16 12:02:00,32.9,31.6,29.74,North,0,0.0,0.0,95,0.00,,---,0.00,VWS V13.00,2013-01-16 21:02:00,
2013-01-16 12:07:00,32.9,31.6,29.74,North,0,0.0,0.0,95,0.00,,---,0.00,VWS V13.00,2013-01-16 21:07:00,
2013-01-16 12:12:00,32.9,31.6,29.74,North,0,0.0,0.0,95,0.00,,---,0.00,VWS V13.00,2013-01-16 21:12:00,
2013-01-16 12:17:00,33.3,32.0,29.74,North,0,0.0,0.0,95,0.00,,---,0.00,VWS V13.00,2013-01-16 21:17:00,
2013-01-16 12:22:00,33.3,32.0,29.74,North,0,0.0,0.0,95,0.00,,---,0.00,VWS V13.00,2013-01-16 21:22:00,
2013-01-16 12:27:00,33.3,32.0,29.74,North,0,0.0,0.0,95,0.00,,---,0.00,VWS V13.00,2013-01-16 21:27:00,
2013-01-16 12:32:00,33.3,32.0,29.74,ENE,68,0.0,0.0,95,0.00,,---,0.00,VWS V13.00,2013-01-16 21:32:00,
2013-01-16 12:37:00,33.1,31.8,29.74,NNE,20,0.0,0.0,95,0.00,,---,0.00,VWS V13.00,2013-01-16 21:37:00,
2013-01-16 12:42:00,33.4,32.2,29.74,North,357,0.0,0.0,95,0.00,,---,0.00,VWS V13.00,2013-01-16 21:42:00,
2013-01-16 12:47:00,34.0,32.4,29.74,ENE,73,0.0,0.0,94,0.00,,---,0.00,VWS V13.00,2013-01-16 21:47:00,
2013-01-16 12:52:00,34.0,32.4,29.74,NNW,348,0.0,0.0,94,0.00,,---,0.00,VWS V13.00,2013-01-16 21:52:00,
2013-01-16 12:57:00,34.0,32.4,29.74,North,4,0.0,0.0,94,0.00,,---,0.00,VWS V13.00,2013-01-16 21:57:00,
2013-01-16 13:02:00,34.3,32.3,29.74,North,353,0.0,0.0,92,0.00,,---,0.00,VWS V13.00,2013-01-16 22:02:00,
2013-01-16 13:07:00,34.0,30.5,29.74,NNE,16,0.0,0.0,87,0.00,,---,0.00,VWS V13.00,2013-01-16 22:07:00,
2013-01-16 13:12:00,34.5,28.7,29.74,NE,52,0.0,0.0,79,0.00,,---,0.00,VWS V13.00,2013-01-16 22:12:00,
2013-01-16 13:17:00,34.5,28.7,29.74,ENE,67,0.0,0.0,79,0.00,,---,0.00,VWS V13.00,2013-01-16 22:17:00,
2013-01-16 13:22:00,34.5,28.7,29.74,ENE,70,0.0,0.0,79,0.00,,---,0.00,VWS V13.00,2013-01-16 22:22:00,
2013-01-16 13:27:00,34.5,28.7,29.62,NNE,22,0.0,0.0,79,0.00,,---,0.00,VWS V13.00,2013-01-16 22:27:00,
2013-01-16 13:32:00,35.4,23.7,29.62,ENE,61,0.0,0.0,62,0.00,,---,0.00,VWS V13.00,2013-01-16 22:32:00,
2013-01-16 13:37:00,35.4,23.7,29.62,ENE,63,0.0,0.0,62,0.00,,---,0.00,VWS V13.00,2013-01-16 22:37:00,
2013-01-16 13:42:00,35.4,23.7,29.62,ENE,60,0.0,0.0,62,0.00,,---,0.00,VWS V13.00,2013-01-16 22:42:00,
2013-01-16 13:47:00,35.4,23.7,29.62,ENE,69,0.0,0.0,62,0.00,,---,0.00,VWS V13.00,2013-01-16 22:47:00,
2013-01-16 13:52:00,35.4,23.3,29.62,ENE,73,0.0,0.0,61,0.00,,---,0.00,VWS V13.00,2013-01-16 22:52:00,
2013-01-16 13:57:00,35.4,23.7,29.62,North,4,0.0,0.0,62,0.00,,---,0.00,VWS V13.00,2013-01-16 22:57:00,
2013-01-16 14:02:00,35.4,23.7,29.62,ENE,65,0.0,0.0,62,0.00,,---,0.00,VWS V13.00,2013-01-16 23:02:00,
2013-01-16 14:07:00,35.4,23.7,29.62,ENE,76,0.0,0.0,62,0.00,,---,0.00,VWS V13.00,2013-01-16 23:07:00,
2013-01-16 14:12:00,35.6,23.5,29.62,NNE,17,0.0,0.0,61,0.00,,---,0.00,VWS V13.00,2013-01-16 23:12:00,
2013-01-16 14:17:00,35.4,23.3,29.62,ENE,71,0.0,0.0,61,0.00,,---,0.00,VWS V13.00,2013-01-16 23:17:00,
2013-01-16 14:22:00,35.4,23.7,29.62,North,10,0.0,0.0,62,0.00,,---,0.00,VWS V13.00,2013-01-16 23:22:00,
2013-01-16 14:27:00,35.4,23.7,29.62,NE,55,0.0,0.0,62,0.00,,---,0.00,VWS V13.00,2013-01-16 23:27:00,
2013-01-16 14:32:00,35.4,23.7,29.62,ENE,75,0.0,0.0,62,0.00,,---,0.00,VWS V13.00,2013-01-16 23:32:00,
2013-01-16 14:37:00,35.2,22.8,29.62,ESE,112,0.0,0.0,60,0.00,,---,0.00,VWS V13.00,2013-01-16 23:37:00,
2013-01-16 14:42:00,35.1,22.2,29.62,ESE,103,0.0,0.0,59,0.00,,---,0.00,VWS V13.00,2013-01-16 23:42:00,
2013-01-16 14:47:00,35.1,22.2,29.62,NNW,334,0.0,0.0,59,0.00,,---,0.00,VWS V13.00,2013-01-16 23:47:00,
2013-01-16 14:52:00,35.1,22.2,29.62,ESE,108,0.0,0.0,59,0.00,,---,0.00,VWS V13.00,2013-01-16 23:52:00,
2013-01-16 14:57:00,34.9,22.0,29.62,NNW,335,0.0,0.0,59,0.00,,---,0.00,VWS V13.00,2013-01-16 23:57:00,
2013-01-16 15:02:00,34.9,22.0,29.59,ENE,77,0.0,0.0,59,0.00,,---,0.00,VWS V13.00,2013-01-17 00:02:00,
2013-01-16 15:07:00,34.9,21.6,29.59,East,100,0.0,0.0,58,0.00,,---,0.00,VWS V13.00,2013-01-17 00:07:00,
2013-01-16 15:12:00,34.9,21.6,29.59,ENE,70,0.0,0.0,58,0.00,,---,0.00,VWS V13.00,2013-01-17 00:12:00,
2013-01-16 15:17:00,34.9,21.6,29.59,East,79,0.0,0.0,58,0.00,,---,0.00,VWS V13.00,2013-01-17 00:17:00,
2013-01-16 15:22:00,34.5,20.9,29.59,North,8,0.0,0.0,57,0.00,,---,0.00,VWS V13.00,2013-01-17 00:22:00,
2013-01-16 15:27:00,34.5,20.9,29.59,East,82,0.0,0.0,57,0.00,,---,0.00,VWS V13.00,2013-01-17 00:27:00,
2013-01-16 15:32:00,34.7,21.5,29.59,North,0,0.0,0.0,58,0.00,,---,0.00,VWS V13.00,2013-01-17 00:32:00,
2013-01-16 15:37:00,34.3,25.6,29.59,ENE,69,0.0,0.0,70,0.00,,---,0.00,VWS V13.00,2013-01-17 00:37:00,
2013-01-16 15:42:00,34.3,25.6,29.59,NE,42,0.0,0.0,70,0.00,,---,0.00,VWS V13.00,2013-01-17 00:42:00,
2013-01-16 15:47:00,34.3,25.6,29.59,ENE,63,0.0,0.0,70,0.00,,---,0.00,VWS V13.00,2013-01-17 00:47:00,
2013-01-16 15:52:00,33.3,27.1,29.59,ENE,76,0.0,0.0,78,0.00,,---,0.00,VWS V13.00,2013-01-17 00:52:00,
2013-01-16 15:57:00,33.3,27.5,29.59,East,84,0.0,0.0,79,0.00,,---,0.00,VWS V13.00,2013-01-17 00:57:00,
2013-01-16 16:02:00,33.3,27.5,29.59,ENE,69,0.0,0.0,79,0.00,,---,0.00,VWS V13.00,2013-01-17 01:02:00,
2013-01-16 16:07:00,33.3,27.5,29.59,ENE,64,0.0,0.0,79,0.00,,---,0.00,VWS V13.00,2013-01-17 01:07:00,
2013-01-16 16:12:00,33.1,28.2,29.59,ENE,75,0.0,0.0,82,0.00,,---,0.00,VWS V13.00,2013-01-17 01:12:00,
2013-01-16 16:17:00,32.9,28.6,29.59,East,98,0.0,0.0,84,0.00,,---,0.00,VWS V13.00,2013-01-17 01:17:00,
2013-01-16 16:22:00,32.7,28.4,29.59,ENE,62,0.0,0.0,84,0.00,,---,0.00,VWS V13.00,2013-01-17 01:22:00,
2013-01-16 16:27:00,32.7,28.4,29.59,East,94,0.0,0.0,84,0.00,,---,0.00,VWS V13.00,2013-01-17 01:27:00,
2013-01-16 16:32:00,32.5,28.5,29.59,NNE,24,0.0,0.0,85,0.00,,---,0.00,VWS V13.00,2013-01-17 01:32:00,
2013-01-16 16:37:00,32.2,27.9,29.56,NE,55,0.0,0.0,84,0.00,,---,0.00,VWS V13.00,2013-01-17 01:37:00,
2013-01-16 16:42:00,32.0,27.4,29.56,ENE,70,0.0,0.0,83,0.00,,---,0.00,VWS V13.00,2013-01-17 01:42:00,
2013-01-16 16:47:00,32.0,27.4,29.56,East,95,0.0,0.0,83,0.00,,---,0.00,VWS V13.00,2013-01-17 01:47:00,
2013-01-16 16:52:00,32.0,27.4,29.56,ENE,68,0.0,0.0,83,0.00,,---,0.00,VWS V13.00,2013-01-17 01:52:00,
2013-01-16 16:57:00,31.5,26.0,29.56,East,86,0.0,0.0,80,0.00,,---,0.00,VWS V13.00,2013-01-17 01:57:00,
2013-01-16 17:02:00,31.3,25.5,29.56,ENE,58,0.0,0.0,79,0.00,,---,0.00,VWS V13.00,2013-01-17 02:02:00,
2013-01-16 17:07:00,31.3,25.5,29.56,North,357,0.0,0.0,79,0.00,,---,0.00,VWS V13.00,2013-01-17 02:07:00,
2013-01-16 17:12:00,31.3,25.5,29.56,NE,55,0.0,0.0,79,0.00,,---,0.00,VWS V13.00,2013-01-17 02:12:00,
2013-01-16 17:17:00,31.3,25.5,29.56,ENE,65,0.0,0.0,79,0.00,,---,0.00,VWS V13.00,2013-01-17 02:17:00,
2013-01-16 17:22:00,31.3,25.5,29.56,NNW,341,0.0,0.0,79,0.00,,---,0.00,VWS V13.00,2013-01-17 02:22:00,
2013-01-16 17:27:00,31.1,25.0,29.56,North,8,0.0,0.0,78,0.00,,---,0.00,VWS V13.00,2013-01-17 02:27:00,
2013-01-16 17:32:00,30.9,24.6,29.56,East,83,0.0,0.0,77,0.00,,---,0.00,VWS V13.00,2013-01-17 02:32:00,
2013-01-16 17:37:00,30.9,24.6,29.56,ENE,77,0.0,0.0,77,0.00,,---,0.00,VWS V13.00,2013-01-17 02:37:00,
2013-01-16 17:42:00,30.6,23.9,29.56,East,79,0.0,0.0,76,0.00,,---,0.00,VWS V13.00,2013-01-17 02:42:00,
2013-01-16 17:47:00,30.6,23.9,29.56,NE,51,0.0,0.0,76,0.00,,---,0.00,VWS V13.00,2013-01-17 02:47:00,
2013-01-16 17:52:00,30.2,23.2,29.56,ENE,64,0.0,0.0,75,0.00,,---,0.00,VWS V13.00,2013-01-17 02:52:00,
2013-01-16 17:57:00,30.2,23.2,29.56,East,92,0.0,0.0,75,0.00,,---,0.00,VWS V13.00,2013-01-17 02:57:00,
2013-01-16 18:02:00,30.2,23.2,29.56,ENE,78,0.0,0.0,75,0.00,,---,0.00,VWS V13.00,2013-01-17 03:02:00,
2013-01-16 18:07:00,30.2,23.2,29.56,ENE,71,0.0,0.0,75,0.00,,---,0.00,VWS V13.00,2013-01-17 03:07:00,
2013-01-16 18:12:00,29.8,22.2,29.56,East,81,0.0,0.0,73,0.00,,---,0.00,VWS V13.00,2013-01-17 03:12:00,
2013-01-16 18:17:00,29.7,21.8,29.56,ENE,57,0.0,0.0,72,0.00,,---,0.00,VWS V13.00,2013-01-17 03:17:00,
2013-01-16 18:22:00,29.7,21.8,29.53,ESE,110,0.0,0.0,72,0.00,,---,0.00,VWS V13.00,2013-01-17 03:22:00,
2013-01-16 18:27:00,29.7,21.8,29.53,NE,50,0.0,0.0,72,0.00,,---,0.00,VWS V13.00,2013-01-17 03:27:00,
2013-01-16 18:32:00,29.7,21.8,29.53,ENE,76,0.0,0.0,72,0.00,,---,0.00,VWS V13.00,2013-01-17 03:32:00,
2013-01-16 18:37:00,29.7,21.8,29.53,East,93,0.0,0.0,72,0.00,,---,0.00,VWS V13.00,2013-01-17 03:37:00,
2013-01-16 18:42:00,29.7,21.8,29.53,SSE,165,0.0,0.0,72,0.00,,---,0.00,VWS V13.00,2013-01-17 03:42:00,
2013-01-16 18:47:00,29.7,21.8,29.53,NNW,333,0.0,0.0,72,0.00,,---,0.00,VWS V13.00,2013-01-17 03:47:00,
2013-01-16 18:52:00,30.0,22.1,29.53,East,85,0.0,0.0,72,0.00,,---,0.00,VWS V13.00,2013-01-17 03:52:00,
2013-01-16 18:57:00,29.8,21.6,29.53,East,82,0.0,0.0,71,0.00,,---,0.00,VWS V13.00,2013-01-17 03:57:00,
2013-01-16 19:02:00,29.7,21.4,29.53,East,88,0.0,0.0,71,0.00,,---,0.00,VWS V13.00,2013-01-17 04:02:00,
2013-01-16 19:06:00,29.7,21.4,29.53,ESE,120,0.0,0.0,71,0.00,,---,0.00,VWS V13.00,2013-01-17 04:06:00,
2013-01-16 19:11:00,29.7,21.1,29.53,NE,56,0.0,0.0,70,0.00,,---,0.00,VWS V13.00,2013-01-17 04:11:00,
2013-01-16 19:16:00,29.7,21.1,29.53,East,86,0.0,0.0,70,0.00,,---,0.00,VWS V13.00,2013-01-17 04:16:00,
2013-01-16 19:21:00,29.7,21.1,29.53,ESE,107,0.0,0.0,70,0.00,,---,0.00,VWS V13.00,2013-01-17 04:21:00,
2013-01-16 19:26:00,29.5,21.2,29.53,ENE,76,0.0,0.0,71,0.00,,---,0.00,VWS V13.00,2013-01-17 04:26:00,
2013-01-16 19:31:00,29.5,21.6,29.53,West,276,0.0,0.0,72,0.00,,---,0.00,VWS V13.00,2013-01-17 04:31:00,
2013-01-16 19:36:00,29.5,21.9,29.53,ENE,65,0.0,0.0,73,0.00,,---,0.00,VWS V13.00,2013-01-17 04:36:00,
2013-01-16 19:41:00,29.5,22.2,29.53,ENE,73,0.0,0.0,74,0.00,,---,0.00,VWS V13.00,2013-01-17 04:41:00,
2013-01-16 19:46:00,29.5,22.2,29.53,East,88,0.0,0.0,74,0.00,,---,0.00,VWS V13.00,2013-01-17 04:46:00,
2013-01-16 19:51:00,29.3,22.4,29.53,ENE,61,0.0,0.0,75,0.00,,---,0.00,VWS V13.00,2013-01-17 04:51:00,
2013-01-16 19:56:00,29.3,22.7,29.53,ESE,113,0.0,0.0,76,0.00,,---,0.00,VWS V13.00,2013-01-17 04:56:00,
2013-01-16 20:00:00,29.1,22.5,29.53,ENE,64,0.0,0.0,76,0.00,,---,0.00,VWS V13.00,2013-01-17 05:00:00,
2013-01-16 20:01:00,29.1,22.5,29.53,East,101,0.0,0.0,76,0.00,,---,0.00,VWS V13.00,2013-01-17 05:01:00,
2013-01-16 20:04:00,29.1,22.5,29.53,East,89,0.0,0.0,76,0.00,,---,0.00,VWS V13.00,2013-01-17 05:04:00,
2013-01-16 20:09:00,29.1,22.5,29.53,NNE,32,0.0,0.0,76,0.00,,---,0.00,VWS V13.00,2013-01-17 05:09:00,
2013-01-16 20:14:00,28.9,22.6,29.53,ENE,66,0.0,0.0,77,0.00,,---,0.00,VWS V13.00,2013-01-17 05:14:00,
2013-01-16 20:19:00,28.8,22.8,29.53,ENE,66,0.0,0.0,78,0.00,,---,0.00,VWS V13.00,2013-01-17 05:19:00,
2013-01-16 20:24:00,28.8,23.4,29.50,ENE,77,0.0,0.0,80,0.00,,---,0.00,VWS V13.00,2013-01-17 05:24:00,
2013-01-16 20:29:00,28.8,23.4,29.50,East,87,0.0,0.0,80,0.00,,---,0.00,VWS V13.00,2013-01-17 05:29:00,
2013-01-16 20:34:00,28.6,23.5,29.50,ENE,78,0.0,0.0,81,0.00,,---,0.00,VWS V13.00,2013-01-17 05:34:00,
2013-01-16 20:39:00,28.6,23.8,29.50,East,98,0.0,0.0,82,0.00,,---,0.00,VWS V13.00,2013-01-17 05:39:00,
2013-01-16 20:44:00,28.6,24.1,29.50,East,87,0.0,0.0,83,0.00,,---,0.00,VWS V13.00,2013-01-17 05:44:00,
2013-01-16 20:49:00,28.2,24.0,29.50,ENE,77,0.0,0.0,84,0.00,,---,0.00,VWS V13.00,2013-01-17 05:49:00,
2013-01-16 20:54:00,28.4,24.5,29.50,ENE,69,0.0,0.0,85,0.00,,---,0.00,VWS V13.00,2013-01-17 05:54:00,
2013-01-16 20:59:00,28.2,24.3,29.50,North,357,0.0,0.0,85,0.00,,---,0.00,VWS V13.00,2013-01-17 05:59:00,
2013-01-16 21:04:00,28.0,23.8,29.50,ENE,72,0.0,0.0,84,0.00,,---,0.00,VWS V13.00,2013-01-17 06:04:00,
2013-01-16 21:09:00,28.0,23.5,29.50,East,89,0.0,0.0,83,0.00,,---,0.00,VWS V13.00,2013-01-17 06:09:00,
2013-01-16 21:14:00,28.2,23.7,29.50,ENE,75,0.0,0.0,83,0.00,,---,0.00,VWS V13.00,2013-01-17 06:14:00,
2013-01-16 21:19:00,28.2,23.7,29.50,SSE,152,0.0,0.0,83,0.00,,---,0.00,VWS V13.00,2013-01-17 06:19:00,
2013-01-16 21:24:00,28.2,23.7,29.50,NNW,337,0.0,0.0,83,0.00,,---,0.00,VWS V13.00,2013-01-17 06:24:00,
2013-01-16 21:29:00,28.2,23.7,29.50,ENE,68,0.0,0.0,83,0.00,,---,0.00,VWS V13.00,2013-01-17 06:29:00,
2013-01-16 21:34:00,28.2,23.4,29.50,NNE,30,0.0,0.0,82,0.00,,---,0.00,VWS V13.00,2013-01-17 06:34:00,
2013-01-16 21:39:00,28.4,23.9,29.50,North,11,0.0,0.0,83,0.00,,---,0.00,VWS V13.00,2013-01-17 06:39:00,
2013-01-16 21:44:00,28.4,23.9,29.50,North,353,0.0,0.0,83,0.00,,---,0.00,VWS V13.00,2013-01-17 06:44:00,
2013-01-16 21:49:00,28.4,23.6,29.50,NNE,20,0.0,0.0,82,0.00,,---,0.00,VWS V13.00,2013-01-17 06:49:00,
2013-01-16 21:54:00,28.2,23.4,29.50,NNW,348,0.0,0.0,82,0.00,,---,0.00,VWS V13.00,2013-01-17 06:54:00,
2013-01-16 21:59:00,28.2,23.1,29.50,NNW,330,0.0,0.0,81,0.00,,---,0.00,VWS V13.00,2013-01-17 06:59:00,
2013-01-16 22:04:00,28.0,22.7,29.50,NNE,32,0.0,0.0,80,0.00,,---,0.00,VWS V13.00,2013-01-17 07:04:00,
2013-01-16 22:09:00,28.0,22.7,29.50,NW,316,0.0,0.0,80,0.00,,---,0.00,VWS V13.00,2013-01-17 07:09:00,
2013-01-16 22:14:00,28.0,22.4,29.50,North,2,0.0,0.0,79,0.00,,---,0.00,VWS V13.00,2013-01-17 07:14:00,
2013-01-16 22:19:00,27.9,22.2,29.50,North,1,0.0,0.0,79,0.00,,---,0.00,VWS V13.00,2013-01-17 07:19:00,
2013-01-16 22:24:00,27.9,22.2,29.50,NNW,327,0.0,0.0,79,0.00,,---,0.00,VWS V13.00,2013-01-17 07:24:00,
2013-01-16 22:29:00,27.9,21.9,29.50,NW,325,0.0,0.0,78,0.00,,---,0.00,VWS V13.00,2013-01-17 07:29:00,
2013-01-16 22:34:00,27.9,21.9,29.50,North,349,0.0,0.0,78,0.00,,---,0.00,VWS V13.00,2013-01-17 07:34:00,
2013-01-16 22:39:00,27.7,21.4,29.50,NNW,346,0.0,0.0,77,0.00,,---,0.00,VWS V13.00,2013-01-17 07:39:00,
2013-01-16 22:44:00,27.5,21.2,29.50,North,357,0.0,0.0,77,0.00,,---,0.00,VWS V13.00,2013-01-17 07:44:00,
2013-01-16 22:49:00,27.3,20.8,29.50,East,80,0.0,0.0,76,0.00,,---,0.00,VWS V13.00,2013-01-17 07:49:00,
2013-01-16 22:54:00,27.3,20.5,29.50,ENE,75,0.0,0.0,75,0.00,,---,0.00,VWS V13.00,2013-01-17 07:54:00,
2013-01-16 22:59:00,27.1,20.0,29.50,ENE,70,0.0,0.0,74,0.00,,---,0.00,VWS V13.00,2013-01-17 07:59:00,
2013-01-16 23:04:00,27.1,20.0,29.50,North,0,0.0,0.0,74,0.00,,---,0.00,VWS V13.00,2013-01-17 08:04:00,
2013-01-16 23:09:00,27.1,19.6,29.50,NNW,339,0.0,0.0,73,0.00,,---,0.00,VWS V13.00,2013-01-17 08:09:00,
2013-01-16 23:14:00,27.0,19.5,29.50,NNE,14,0.0,0.0,73,0.00,,---,0.00,VWS V13.00,2013-01-17 08:14:00,
2013-01-16 23:19:00,27.0,19.5,29.50,NW,314,0.0,0.0,73,0.00,,---,0.00,VWS V13.00,2013-01-17 08:19:00,
2013-01-16 23:24:00,27.0,19.8,29.50,NNW,334,0.0,0.0,74,0.00,,---,0.00,VWS V13.00,2013-01-17 08:24:00,
2013-01-16 23:29:00,27.0,19.8,29.47,NW,324,0.0,0.0,74,0.00,,---,0.00,VWS V13.00,2013-01-17 08:29:00,
2013-01-16 23:34:00,27.0,19.8,29.47,NNE,15,0.0,0.0,74,0.00,,---,0.00,VWS V13.00,2013-01-17 08:34:00,
2013-01-16 23:39:00,26.8,19.6,29.47,NNW,334,0.0,0.0,74,0.00,,---,0.00,VWS V13.00,2013-01-17 08:39:00,
2013-01-16 23:44:00,26.8,19.6,29.47,North,6,0.0,0.0,74,0.00,,---,0.00,VWS V13.00,2013-01-17 08:44:00,
2013-01-16 23:49:00,26.8,19.3,29.47,NW,314,0.0,0.0,73,0.00,,---,0.00,VWS V13.00,2013-01-17 08:49:00,
2013-01-16 23:54:00,26.8,19.0,29.47,NNE,22,0.0,0.0,72,0.00,,---,0.00,VWS V13.00,2013-01-17 08:54:00,
2013-01-16 23:59:00,26.8,18.6,29.47,WNW,302,0.0,0.0,71,0.00,,---,0.00,VWS V13.00,2013-01-17 08:59:00,